Overview Statistics Trail Chart Weather Telemetry Raw packets
 

This is the latest recevied weather packets stored in our database for station/object HI3LT-13. If no packets are shown the sender has not sent any weather packets the latest 10 day(s).

<< 49 50 51 52 53 54 55 >>
Time Temp. Humidity Pressure Rain* Wind** Luminosity Snow
1787862020 33.89° C 54% 1013 hPa 0 mm - - -
1787861419 34.44° C 50% 1013 hPa 0 mm - - -
1787860818 33.89° C 56% 1013 hPa 0 mm - - -
1787860217 34.44° C 50% 1013 hPa 0 mm - - -
1787859615 33.89° C 56% 1013 hPa 0 mm - - -
1787859014 33.89° C 56% 1013 hPa 0 mm - - -
1787858412 33.89° C 57% 1013 hPa 0 mm - - -
1787857811 33.33° C 61% 1013 hPa 0 mm - - -
1787857276 33.33° C 61% 1013 hPa 0 mm - - -
1787856675 33.33° C 62% 1013 hPa 0 mm - - -
1787856074 34.44° C 56% 1013 hPa 0 mm - - -
1787855473 33.33° C 64% 1013 hPa 0 mm - - -
1787854872 33.33° C 66% 1013 hPa 0 mm - - -
1787854271 34.44° C 65% 1013 hPa 0 mm - - -
1787853670 33.33° C 67% 1014 hPa 0 mm - - -
1787853069 35° C 68% 1014 hPa 0 mm - - -
1787852073 30° C 68% 1014 hPa 0 mm - - -
1787851472 32.22° C 65% 1014 hPa 0 mm - - -
1787850871 32.78° C 66% 1014 hPa 0 mm - - -
1787850272 33.33° C 71% 1014 hPa 0 mm - - -
1787849669 32.78° C 69% 1014 hPa 0 mm - - -
1787849069 32.78° C 69% 1015 hPa 0 mm - - -
1787848468 32.78° C 69% 1015 hPa 0 mm - - -
1787847867 32.78° C 69% 1015 hPa 0 mm - - -
1787847266 31.11° C 66% 1015 hPa 0 mm - - -

* Rain latest hour (hover to see other rain measurements)
** Current wind speed in m/s (hover to see current wind gust speed)